ARIRANG-5 (KOMPSAT-5)

Last updated on Sun Dec 07 2025 00:02:30 GMT+0000 (Coordinated Universal Time)

1 39227U 13042A 25340.62441214 .00002832 00000+0 20645-3 0 9995 2 39227 97.6151 165.0161 0003976 74.2592 285.9073 15.04521641674907
UTC large
Height (km)
Speed (km/s)
/
Latitude / Longitude
Inclination (degrees)
Orbital Period (minutes)
Azimuth
Elevation
Range (km)
Doppler Factor

Next 0 passes for location: London (51.5072 / 0.1276)

Sorry there are no passes over London.